Temp
26 25 26 27 25 23 28 29 31 30 30 31 30 27 27 25 27 23 23 22 21 18 20 20 20 20 20 21 20 20 20 19 20 20 19 18 19 19 20 19 19 18 18 18 18 18 18 18 18
26 27 27 27 20 22 28 30 29 29 31 31 30 25 20 27 26 24 23 22 21 19 18 20 20 20 20 20 20 20 19 19 20 20 19 19 18 19 19 19 19 18 18 18 18 18 17 18 17
26 26 28 19 22 22 28 29 30 30 30 31 29 26 25 27 27 25 23 22 21 20 18 20 20 20 20 20 20 20 19 19 20 18 19 19 19 18 19 19 18 17 18 18 18 17 17 17 18
27 28 24 23 24 31 31 31 29 31 31 30 28 26 26 26 26 24 23 22 22 20 20 20 20 20 20 20 20 19 19 19 19 19 19 19 18 18 19 18 18 18 18 18 18 17 17 17 17
28 23 20 23 29 30 31 31 30 31 30 31 29 26 25 24 25 23 23 21 21 20 20 20 20 20 20 19 19 19 19 19 19 19 19 19 19 19 19 18 18 18 17 17 18 17 17 17 17
28 24 24 29 31 32 32 32 32 32 31 30 27 25 24 23 25 22 23 22 20 20 19 20 19 19 19 19 19 19 19 19 19 19 20 20 20 19 19 19 17 17 17 17 17 17 17 17 17
22 20 27 31 31 31 32 32 30 32 32 31 28 27 23 23 25 23 23 21 20 20 19 20 19 19 19 19 19 19 19 19 19 20 19 19 19 19 19 18 19 18 18 17 17 17 17 17 17
22 22 28 30 30 31 33 32 31 31 31 30 28 26 24 23 24 25 23 22 21 21 19 18 18 19 18 18 19 19 19 19 19 19 19 19 19 18 18 18 19 18 18 18 18 18 18 18 18
27 27 27 28 28 32 33 32 32 31 30 30 28 27 25 22 23 25 25 24 23 22 19 18 17 17 18 17 18 19 19 19 18 18 19 19 18 17 17 17 18 18 18 18 18 18 18 18 18
24 21 25 32 32 33 31 32 32 31 32 30 27 26 23 22 23 25 25 24 24 22 20 19 19 18 17 18 19 19 19 19 19 18 18 18 18 17 17 17 17 18 18 18 18 18 18 18 18
23 21 30 34 33 33 34 33 31 30 30 31 27 26 23 23 23 25 25 25 24 23 21 21 20 19 19 19 19 19 19 18 18 18 18 18 17 17 17 17 17 17 17 17 17 17 17 16 17
33 34 34 34 33 34 32 32 33 32 31 31 27 25 24 23 23 24 25 25 24 23 22 21 21 20 20 20 20 19 18 19 19 18 18 18 18 17 17 17 17 17 17 17 17 17 17 17 17
34 34 33 33 33 33 33 33 31 28 31 30 27 25 25 24 24 23 25 25 25 24 23 22 21 20 20 20 20 20 19 18 19 18 18 18 18 17 17 17 17 17 17 17 18 17 17 17 18
34 34 34 33 33 34 34 33 31 30 31 30 28 27 26 25 25 24 23 24 25 24 23 22 21 20 20 20 19 20 19 19 19 19 18 18 18 17 17 17 17 17 17 17 18 18 18 17 18
34 33 34 34 34 34 34 32 24 26 25 30 29 28 28 26 26 24 24 24 24 24 23 22 21 20 21 20 20 20 19 19 19 19 18 18 18 18 18 17 17 18 18 18 17 18 18 18 18
33 34 33 35 34 34 33 24 23 26 24 31 31 29 28 28 27 25 24 24 24 24 23 22 21 21 20 19 19 19 19 19 19 18 18 19 19 18 18 18 18 18 18 18 18 18 18 18 19
33 32 33 33 34 34 33 23 22 27 25 31 29 29 29 28 27 25 24 24 24 23 23 22 21 20 20 19 19 19 19 19 19 19 19 19 19 18 18 18 18 18 18 18 18 18 18 19 19
32 33 33 33 34 34 33 33 26 24 30 31 28 30 29 27 27 25 24 24 23 22 21 21 21 20 20 19 19 18 19 19 19 19 19 19 20 19 18 18 18 18 18 18 18 18 18 18 19
34 33 32 33 34 33 33 34 33 29 22 33 33 30 28 28 27 26 25 24 23 22 20 20 20 20 19 19 19 19 18 19 18 19 19 19 19 19 19 19 18 18 18 18 18 18 18 18 18
34 33 33 35 35 34 33 33 34 34 31 34 33 32 30 29 27 26 24 24 22 21 21 21 19 19 19 19 18 19 18 19 18 18 18 19 19 19 19 18 18 18 18 18 18 18 18 19 19
34 34 32 33 33 34 33 32 27 29 28 31 34 33 33 31 28 24 21 21 22 21 21 20 20 20 19 18 18 17 18 18 18 17 18 20 19 19 18 18 18 18 18 18 18 18 18 19 19
33 35 35 33 33 32 34 31 26 26 27 31 30 25 28 32 28 24 23 22 22 21 19 19 18 18 18 17 16 17 18 18 19 18 19 19 19 19 18 18 18 18 18 18 18 18 18 18 19
33 35 34 33 33 33 34 32 26 25 27 28 23 24 22 22 29 28 27 24 23 22 20 19 19 19 17 17 16 16 17 18 18 19 19 19 19 19 19 19 19 18 18 18 18 18 18 18 19
35 34 34 33 33 31 30 30 26 28 26 29 26 27 32 33 31 29 28 25 23 21 21 19 18 18 17 16 17 18 18 18 18 19 19 19 20 19 19 19 19 18 19 18 18 18 18 19 19
34 33 31 31 31 26 28 25 25 29 32 32 32 34 33 32 30 28 26 25 22 21 20 18 18 18 18 17 18 18 19 18 18 19 20 20 19 19 19 18 18 18 18 18 18 18 18 19 18
33 33 31 28 26 21 25 27 30 36 36 35 35 34 32 31 30 28 26 25 22 21 20 19 18 18 18 18 18 18 19 19 19 20 19 19 19 20 19 18 19 18 18 18 19 18 18 18 19
33 32 34 33 34 33 30 32 24 29 35 35 35 34 34 32 30 28 26 25 24 21 21 20 19 19 18 18 19 19 19 19 19 19 18 19 20 20 20 19 19 19 19 19 18 19 19 18 18
33 35 32 33 30 30 31 28 28 27 34 35 35 35 34 32 30 28 26 25 24 23 22 20 20 20 19 20 20 20 19 20 19 19 19 20 20 20 19 19 19 19 19 19 19 18 18 18 18
33 32 33 34 34 32 28 24 25 31 34 34 35 34 34 31 30 28 27 25 24 24 23 22 21 20 20 20 20 20 20 19 19 19 19 20 20 19 19 19 19 19 19 18 19 19 18 18 18
34 33 34 32 31 33 33 32 29 31 35 35 35 34 33 31 30 28 27 25 24 24 24 23 22 21 21 21 21 20 19 20 20 19 18 19 19 19 19 19 19 19 19 19 19 19 19 18 19
Height
1477 1477 1477 1481 1492 1488 1474 1472 1465 1469 1468 1468 1475 1484 1490 1489 1492 1508 1508 1512 1517 1520 1524 1527 1530 1534 1536 1539 1542 1545 1547 1548 1550 1552 1553 1556 1556 1557 1558 1560 1562 1564 1565 1564 1564 1564 1564 1565 1566
1479 1480 1480 1482 1503 1505 1478 1466 1476 1472 1470 1472 1479 1489 1494 1494 1498 1503 1509 1515 1520 1522 1527 1528 1531 1536 1539 1541 1544 1547 1549 1550 1552 1554 1556 1557 1559 1559 1560 1562 1563 1565 1566 1566 1566 1566 1566 1567 1568
1480 1481 1479 1490 1497 1502 1482 1474 1473 1473 1472 1473 1482 1491 1499 1501 1504 1504 1510 1516 1522 1526 1527 1529 1533 1536 1540 1543 1546 1549 1551 1552 1553 1555 1557 1559 1560 1561 1562 1563 1565 1566 1567 1567 1567 1567 1568 1569 1571
1481 1484 1484 1491 1495 1465 1466 1469 1475 1471 1471 1474 1479 1495 1501 1505 1504 1505 1514 1518 1524 1528 1527 1531 1534 1538 1541 1544 1547 1550 1552 1554 1555 1557 1558 1560 1562 1563 1563 1565 1565 1567 1568 1569 1569 1568 1569 1571 1572
1479 1488 1501 1495 1477 1470 1468 1469 1471 1473 1475 1474 1479 1493 1499 1505 1506 1509 1517 1518 1524 1528 1530 1533 1536 1539 1542 1545 1547 1550 1552 1555 1556 1558 1559 1561 1562 1564 1564 1565 1566 1567 1568 1569 1569 1569 1570 1571 1573
1482 1488 1497 1483 1473 1466 1469 1469 1469 1471 1476 1480 1487 1496 1503 1506 1509 1511 1518 1520 1525 1529 1531 1534 1537 1540 1543 1546 1548 1551 1553 1555 1557 1559 1560 1562 1563 1564 1565 1566 1567 1568 1568 1569 1569 1569 1570 1571 1572
1487 1499 1484 1470 1474 1473 1470 1469 1472 1472 1473 1477 1488 1495 1505 1508 1510 1511 1517 1521 1526 1530 1530 1534 1537 1540 1543 1546 1548 1551 1553 1555 1558 1559 1560 1562 1563 1564 1565 1566 1567 1568 1569 1569 1569 1569 1570 1569 1570
1485 1489 1477 1471 1478 1475 1468 1469 1473 1474 1479 1481 1484 1493 1503 1507 1511 1514 1518 1521 1527 1531 1531 1534 1537 1539 1542 1545 1548 1550 1553 1555 1558 1560 1561 1562 1563 1564 1565 1566 1567 1568 1569 1569 1569 1569 1569 1569 1569
1476 1485 1491 1485 1480 1472 1469 1471 1474 1475 1479 1484 1488 1490 1498 1505 1511 1514 1517 1522 1527 1531 1531 1536 1538 1541 1543 1545 1547 1550 1552 1555 1557 1559 1560 1561 1562 1564 1564 1565 1566 1567 1568 1569 1569 1569 1569 1569 1570
1479 1504 1490 1467 1468 1465 1473 1472 1472 1479 1475 1483 1493 1497 1502 1505 1510 1513 1517 1521 1526 1529 1532 1536 1539 1542 1544 1547 1547 1550 1552 1554 1556 1558 1559 1561 1562 1564 1565 1566 1566 1567 1567 1567 1567 1568 1569 1568 1569
1492 1505 1471 1466 1470 1467 1467 1469 1473 1478 1482 1482 1491 1499 1505 1507 1510 1513 1517 1521 1525 1529 1532 1535 1538 1541 1545 1548 1548 1550 1552 1554 1556 1557 1559 1560 1562 1564 1563 1565 1566 1565 1566 1566 1566 1567 1565 1562 1565
1470 1469 1466 1467 1470 1467 1472 1472 1473 1477 1482 1481 1491 1500 1505 1509 1511 1513 1515 1520 1523 1527 1532 1534 1537 1540 1544 1546 1547 1549 1551 1553 1555 1556 1558 1559 1561 1563 1564 1564 1564 1565 1565 1565 1565 1565 1564 1560 1562
1464 1467 1468 1471 1472 1468 1472 1472 1481 1483 1482 1485 1493 1502 1505 1508 1511 1513 1514 1517 1522 1526 1530 1532 1535 1539 1543 1544 1546 1549 1551 1553 1557 1559 1559 1559 1560 1561 1562 1563 1563 1563 1562 1563 1563 1563 1564 1564 1564
1463 1466 1466 1468 1470 1468 1470 1472 1475 1486 1485 1486 1494 1499 1500 1502 1506 1510 1513 1515 1519 1522 1527 1530 1533 1537 1540 1543 1546 1548 1550 1554 1554 1556 1559 1560 1558 1558 1559 1560 1561 1561 1561 1561 1562 1562 1561 1562 1565
1466 1468 1465 1463 1465 1466 1469 1474 1498 1493 1489 1485 1488 1493 1495 1497 1501 1505 1509 1512 1515 1519 1524 1529 1532 1534 1539 1541 1543 1546 1549 1553 1552 1551 1557 1557 1557 1556 1557 1558 1559 1559 1559 1559 1560 1560 1557 1559 1561
1468 1464 1472 1459 1463 1465 1470 1505 1485 1498 1485 1474 1480 1485 1491 1494 1497 1500 1505 1508 1512 1516 1519 1524 1529 1532 1535 1539 1541 1544 1547 1551 1554 1553 1555 1556 1553 1555 1552 1556 1558 1558 1558 1558 1560 1558 1557 1557 1557
1467 1478 1468 1469 1461 1462 1467 1498 1482 1473 1475 1471 1486 1487 1484 1490 1493 1495 1500 1503 1508 1511 1515 1520 1525 1529 1532 1535 1538 1542 1545 1548 1550 1552 1552 1550 1551 1553 1550 1553 1555 1554 1557 1558 1558 1557 1556 1555 1555
1473 1468 1466 1467 1460 1461 1463 1462 1472 1480 1470 1469 1479 1472 1474 1483 1489 1493 1499 1502 1504 1506 1512 1517 1520 1524 1527 1530 1536 1536 1541 1543 1545 1545 1546 1546 1547 1549 1550 1551 1552 1552 1554 1556 1556 1556 1555 1554 1555
1460 1466 1472 1459 1456 1461 1461 1460 1459 1464 1474 1462 1464 1468 1460 1471 1481 1491 1498 1505 1507 1500 1504 1511 1515 1520 1523 1525 1530 1535 1536 1539 1542 1543 1542 1542 1544 1546 1547 1547 1548 1551 1552 1553 1554 1555 1554 1554 1554
1456 1462 1463 1452 1452 1458 1461 1462 1453 1454 1459 1453 1454 1456 1457 1462 1469 1477 1482 1489 1498 1500 1497 1504 1510 1515 1519 1523 1527 1530 1533 1536 1543 1543 1544 1539 1540 1543 1544 1544 1545 1546 1549 1549 1551 1552 1554 1554 1554
1460 1461 1465 1464 1459 1453 1458 1465 1469 1458 1461 1456 1452 1452 1453 1459 1466 1471 1471 1482 1493 1498 1493 1499 1504 1510 1514 1520 1524 1526 1529 1532 1541 1529 1542 1536 1536 1539 1540 1540 1541 1542 1544 1547 1549 1550 1552 1553 1554
1466 1450 1450 1460 1464 1475 1451 1482 1481 1471 1465 1456 1458 1467 1465 1461 1461 1469 1471 1477 1490 1494 1493 1496 1501 1506 1512 1515 1518 1521 1525 1528 1533 1537 1536 1533 1535 1535 1537 1538 1538 1537 1541 1544 1547 1549 1551 1552 1552
1458 1449 1456 1457 1462 1461 1452 1466 1483 1472 1477 1466 1456 1470 1472 1463 1457 1462 1468 1473 1482 1485 1490 1495 1499 1502 1507 1510 1514 1519 1522 1527 1530 1530 1531 1531 1533 1534 1535 1535 1535 1536 1539 1541 1544 1547 1549 1550 1551
1448 1450 1452 1456 1459 1479 1470 1473 1490 1476 1468 1459 1453 1458 1452 1454 1455 1462 1467 1473 1481 1485 1490 1493 1496 1500 1504 1507 1511 1515 1520 1525 1525 1528 1528 1530 1530 1531 1532 1532 1533 1533 1535 1538 1541 1544 1546 1549 1550
1452 1459 1483 1483 1477 1513 1487 1491 1491 1454 1447 1444 1443 1441 1447 1451 1456 1466 1472 1477 1482 1487 1490 1494 1496 1499 1502 1506 1510 1513 1516 1522 1525 1529 1528 1528 1529 1529 1529 1531 1528 1532 1534 1536 1538 1541 1544 1546 1548
1452 1455 1476 1499 1507 1519 1483 1493 1463 1431 1435 1437 1439 1441 1446 1451 1457 1466 1475 1480 1482 1487 1491 1494 1496 1500 1504 1507 1511 1512 1514 1519 1525 1526 1524 1519 1528 1528 1527 1528 1529 1530 1532 1535 1537 1539 1542 1545 1546
1449 1461 1447 1460 1448 1453 1464 1454 1461 1450 1437 1438 1439 1441 1443 1447 1455 1464 1473 1481 1485 1486 1491 1493 1496 1501 1505 1509 1510 1511 1513 1519 1521 1522 1522 1525 1528 1527 1526 1527 1528 1529 1531 1533 1534 1536 1539 1542 1544
1445 1438 1462 1457 1486 1484 1464 1474 1476 1461 1441 1438 1437 1437 1438 1445 1454 1462 1471 1478 1485 1488 1491 1493 1497 1501 1505 1508 1509 1509 1512 1519 1521 1524 1527 1525 1527 1526 1523 1525 1527 1528 1530 1533 1534 1535 1537 1539 1541
1450 1453 1446 1441 1445 1465 1487 1495 1466 1454 1438 1436 1436 1436 1438 1448 1453 1461 1470 1477 1484 1488 1490 1493 1497 1501 1505 1507 1509 1510 1510 1515 1522 1525 1525 1527 1524 1523 1523 1525 1527 1527 1529 1530 1532 1534 1535 1537 1539
1435 1442 1442 1459 1464 1447 1449 1459 1442 1440 1435 1434 1435 1438 1440 1446 1454 1462 1470 1476 1482 1487 1491 1494 1497 1500 1503 1505 1508 1512 1514 1514 1515 1519 1521 1522 1522 1523 1525 1526 1527 1530 1529 1530 1531 1532 1533 1534 1536
Wind_Speed
2 11 12 10 3 2 7 8 6 9 4 10 17 18 17 6 8 13 24 24 25 22 25 22 20 18 18 18 18 17 15 13 13 14 14 11 11 10 9 9 12 12 9 12 10 10 10 11 10
1 5 8 5 4 4 7 13 12 9 4 10 17 25 22 16 23 30 26 27 22 21 19 21 20 20 19 18 17 15 13 12 12 13 12 10 10 9 9 10 12 9 8 9 7 8 9 10 11
2 3 7 4 3 3 7 11 6 5 10 6 13 22 8 21 21 21 29 26 23 22 19 23 23 22 20 18 16 14 12 11 11 12 9 9 9 7 8 10 8 7 7 7 8 7 7 9 10
6 2 13 2 4 10 12 12 7 5 12 11 18 14 19 14 17 28 28 27 23 20 18 24 22 21 19 17 15 13 12 10 11 10 9 7 7 7 6 8 5 4 5 8 8 9 8 8 10
7 14 2 7 12 9 10 7 19 10 8 18 17 10 14 12 18 28 25 24 23 21 18 22 21 20 18 17 14 13 12 10 10 9 8 7 6 5 5 5 4 3 4 5 7 7 6 5 5
3 7 2 4 12 10 11 4 6 12 11 16 21 18 10 11 23 27 22 20 22 18 18 22 20 18 16 15 14 12 11 10 10 9 7 5 4 2 2 2 3 2 2 2 3 3 2 2 2
12 5 8 10 10 10 7 9 6 7 11 13 17 14 12 16 23 26 25 24 18 19 19 22 20 18 15 14 14 12 12 12 10 10 7 6 7 7 3 2 1 1 1 0 0 1 1 2 2
25 5 6 8 7 12 7 11 14 14 12 13 15 6 15 24 24 24 25 20 21 22 16 18 17 18 17 15 14 13 13 11 11 9 7 3 3 7 7 4 3 2 4 3 3 3 2 2 3
16 3 4 4 5 8 12 9 6 11 18 4 17 20 25 29 24 21 23 22 25 23 18 17 15 13 15 15 17 15 13 12 11 10 9 7 3 8 6 5 4 5 7 7 5 5 6 6 4
9 4 8 12 10 9 14 7 12 5 17 14 16 23 26 28 26 23 22 28 24 22 17 19 17 15 15 13 15 16 14 13 11 10 11 8 4 7 9 12 13 10 9 10 9 7 8 9 5
13 7 15 14 6 11 9 6 26 13 6 11 22 23 24 25 24 23 22 21 21 20 18 20 20 17 15 17 11 12 10 10 9 11 12 11 6 9 4 12 10 9 9 8 8 11 9 11 9
5 0 5 7 2 9 16 4 8 13 10 14 20 21 21 21 21 23 23 22 21 22 19 20 24 18 18 20 13 11 12 10 10 12 9 7 7 4 8 8 12 11 8 6 10 9 12 14 7
11 6 5 1 3 2 7 15 9 23 11 17 19 19 20 18 18 19 19 22 22 21 21 20 18 16 20 22 16 11 19 10 3 10 13 6 5 11 10 12 10 12 10 13 7 12 11 13 9
5 1 8 9 10 7 7 5 11 9 1 16 18 19 21 23 21 21 22 21 23 24 24 21 24 24 20 14 12 11 14 11 13 14 17 13 11 12 12 13 14 12 7 8 8 10 13 12 8
7 8 7 10 9 8 7 5 13 12 34 12 17 17 19 25 23 25 24 25 24 26 25 24 23 24 27 18 21 19 11 8 13 10 15 17 9 11 13 14 12 7 7 6 10 13 13 8 8
11 13 12 11 4 9 5 4 15 15 39 19 18 17 16 16 22 24 25 25 24 26 30 29 26 26 22 25 21 22 13 7 13 15 14 15 9 11 12 14 11 7 6 6 11 15 10 8 9
11 14 4 10 10 6 9 10 23 35 33 15 5 16 17 17 18 23 23 25 25 24 30 33 30 25 20 23 24 20 16 11 17 19 17 14 14 14 16 16 13 10 9 11 13 15 11 10 9
10 10 8 13 9 6 12 11 26 32 23 19 33 22 23 21 20 23 22 23 24 24 27 33 33 35 29 27 25 23 22 16 17 19 14 16 15 13 15 16 15 12 13 12 15 13 10 7 7
13 8 17 18 12 7 10 13 6 18 37 12 11 11 27 26 26 23 23 27 26 29 26 31 36 39 33 32 31 29 26 20 19 19 17 20 17 18 17 16 16 12 17 12 14 13 11 9 6
7 4 10 3 2 5 10 9 11 5 21 12 16 16 24 27 29 27 27 28 32 32 27 27 35 40 36 34 33 30 30 27 17 16 20 19 19 19 19 19 15 14 16 14 13 11 9 7 5
13 11 7 8 10 12 12 10 9 23 29 27 12 14 20 23 25 29 33 37 30 32 25 23 30 36 36 33 30 32 34 31 20 20 22 15 15 17 16 16 17 15 17 17 14 14 11 9 7
14 14 6 3 9 10 12 10 1 15 23 16 19 43 25 12 23 30 27 28 31 26 22 24 28 30 32 27 33 30 34 30 23 19 17 16 14 14 15 16 15 12 14 16 13 11 12 9 8
16 4 5 10 13 15 16 7 6 12 11 5 11 13 22 46 22 21 18 20 19 20 20 18 21 24 24 23 27 26 30 25 18 18 19 17 15 15 15 14 13 12 12 17 12 12 14 10 8
16 11 7 10 12 13 10 10 9 14 20 9 11 31 9 8 16 14 14 17 17 12 12 14 15 18 19 20 22 26 25 20 22 18 19 15 8 7 12 11 11 11 10 17 16 11 12 14 9
16 14 9 12 12 7 15 7 13 23 19 18 15 4 13 10 15 11 10 13 16 15 12 13 15 16 17 22 27 21 20 18 19 18 15 11 11 10 11 7 9 11 9 11 17 17 16 16 15
16 18 12 7 6 10 18 7 6 3 5 5 4 3 15 14 14 13 12 12 18 18 18 15 16 19 19 22 18 17 16 14 10 9 13 15 12 9 10 7 7 8 9 9 14 16 15 12 14
17 14 18 20 20 16 8 6 25 15 2 3 6 4 6 17 18 18 16 14 15 20 18 16 21 21 19 15 15 15 15 11 12 4 11 7 8 5 1 2 6 5 7 10 10 12 15 15 12
18 14 11 12 17 13 8 7 4 9 4 3 2 7 9 18 17 21 17 17 16 16 17 18 19 19 16 13 11 12 13 12 11 13 12 8 7 4 1 2 2 4 5 5 8 10 12 13 10
12 16 18 15 12 12 2 4 9 17 6 4 2 5 5 26 18 21 18 18 17 17 19 16 18 19 17 18 13 11 8 6 9 10 7 7 4 1 2 2 4 4 4 5 5 7 9 12 13
20 17 19 9 13 12 11 1 6 11 2 4 4 10 9 18 21 18 17 19 18 19 19 20 17 16 13 13 16 12 11 11 6 6 5 4 1 4 2 0 2 2 5 6 5 6 6 7 8
Wind_Direction
325 346 353 305 333 286 66 89 102 97 46 76 71 82 46 73 61 110 133 135 143 142 152 151 152 150 146 143 140 138 131 116 116 118 118 108 106 101 106 108 111 111 92 55 82 79 88 95 94
49 343 262 123 127 295 109 79 53 102 160 103 88 91 44 77 102 118 125 137 138 138 141 156 156 155 149 147 145 144 136 124 120 122 120 120 112 100 102 111 121 115 91 45 91 91 84 96 100
335 314 289 48 120 239 77 112 116 89 105 109 77 91 123 109 119 122 132 135 135 133 144 150 151 151 151 152 151 148 141 132 130 129 133 125 116 106 104 116 117 108 86 59 99 93 99 95 97
292 186 6 64 283 102 119 121 145 44 111 135 122 89 94 107 106 127 131 135 134 138 154 147 151 154 157 159 159 152 151 144 140 139 134 128 123 117 102 123 121 94 93 82 98 96 95 101 99
245 135 186 246 149 69 67 92 136 156 74 56 94 93 107 104 122 130 140 137 142 154 155 150 152 156 162 164 164 161 161 154 151 142 133 131 123 117 112 123 126 112 79 76 96 91 100 103 96
37 350 279 95 98 105 112 139 93 103 87 101 98 114 106 134 144 138 146 153 156 152 164 158 158 160 166 167 169 167 163 156 156 147 135 127 97 98 132 140 122 112 98 88 79 84 78 87 92
40 341 238 117 118 105 118 123 163 93 111 83 117 109 135 158 154 148 144 147 160 152 168 166 168 170 171 173 173 171 169 168 167 161 149 116 18 318 251 234 265 253 156 299 308 261 311 313 299
141 194 353 65 153 112 144 82 89 126 86 105 138 147 152 161 160 154 144 151 157 159 167 167 170 168 165 169 171 170 172 173 172 171 152 195 303 334 269 235 242 292 306 280 291 295 303 302 297
137 339 107 245 356 134 111 123 80 128 116 104 77 142 153 157 161 165 154 153 157 162 161 162 163 166 159 169 167 172 175 174 185 192 191 211 322 331 291 232 233 293 307 294 282 290 306 304 282
68 15 221 164 177 143 138 168 120 172 123 110 85 119 145 155 165 171 169 158 161 161 159 169 170 171 166 170 180 182 189 196 202 211 220 233 318 293 228 242 270 292 297 292 283 281 299 303 284
158 216 253 92 91 85 111 120 114 75 119 124 133 146 154 159 168 173 171 177 173 174 170 177 177 176 174 183 206 194 201 203 215 227 250 261 224 276 322 229 264 287 299 312 294 280 278 251 224
131 3 58 96 129 164 118 174 55 117 59 115 137 154 158 162 170 177 178 180 179 177 181 177 190 187 182 197 217 192 225 230 221 247 267 276 271 230 265 274 263 264 247 251 241 268 262 281 340
209 137 142 192 176 297 176 124 109 6 110 116 132 149 161 170 176 184 190 183 185 186 184 182 192 185 177 208 197 202 214 235 231 241 262 271 267 254 244 253 259 270 278 253 242 253 264 273 276
358 145 198 164 190 206 240 127 72 116 287 123 145 168 175 176 179 182 191 196 191 189 191 190 189 197 200 200 198 200 192 221 225 235 232 260 248 257 265 259 263 271 231 209 246 257 274 277 244
258 226 219 183 196 250 166 3 57 339 292 144 173 183 180 180 181 185 190 198 195 194 193 195 191 199 200 196 210 194 216 214 234 266 229 247 262 257 275 266 271 251 196 218 236 258 267 258 238
251 242 225 204 194 237 220 83 65 230 252 173 190 176 183 184 181 185 192 199 198 198 194 192 198 207 208 207 211 214 211 261 241 229 250 267 292 280 279 273 274 238 208 243 224 256 267 257 256
208 237 233 211 215 224 229 139 175 208 239 178 238 180 183 187 192 186 195 198 197 195 194 196 201 198 215 207 214 221 206 232 238 253 270 280 283 274 267 273 269 240 202 225 222 250 261 260 268
234 231 190 239 181 231 268 253 184 222 264 159 196 184 175 183 200 190 195 199 198 202 206 201 207 204 204 215 224 214 213 213 237 255 270 285 285 269 268 271 262 241 212 228 224 232 238 248 277
230 187 197 242 164 218 254 250 203 130 239 197 204 168 164 184 192 196 202 206 198 204 209 210 212 205 208 212 217 224 214 218 235 247 260 267 270 273 272 269 254 247 225 215 227 221 228 240 250
274 207 246 122 305 221 277 277 304 306 231 201 198 189 184 195 187 184 208 202 195 204 211 211 212 213 216 219 222 222 223 221 227 241 246 259 264 269 269 265 257 252 230 215 219 209 213 205 182
247 253 21 253 230 248 243 247 40 323 299 312 227 244 214 197 178 194 185 194 202 204 210 219 223 220 217 226 229 232 226 232 227 242 240 255 266 270 261 261 260 254 227 222 212 223 195 186 188
240 226 210 290 280 267 203 262 243 243 262 258 354 9 340 211 184 177 173 180 189 192 195 212 227 225 226 234 232 227 223 231 238 242 250 252 258 259 256 260 265 241 221 209 210 207 199 207 210
252 159 297 268 263 286 260 245 192 252 277 94 69 253 215 237 150 165 168 172 174 193 199 211 227 233 222 225 223 215 220 220 237 235 247 250 247 257 262 263 255 237 220 206 200 206 210 203 220
244 275 245 258 251 251 353 27 166 242 221 158 193 230 198 101 111 118 125 135 152 174 209 219 207 210 204 207 207 197 205 213 222 228 233 240 250 279 280 259 242 239 227 211 205 195 223 198 197
237 249 258 248 231 37 19 44 221 278 186 177 187 99 133 109 118 131 151 161 159 166 180 185 192 192 187 185 182 198 215 212 215 222 229 213 228 245 275 255 261 246 223 208 201 206 214 206 200
212 236 246 249 280 200 214 250 260 184 56 54 36 183 128 145 144 158 167 173 173 168 172 176 182 174 175 179 202 215 218 213 202 223 226 219 213 240 239 267 254 229 225 218 211 216 215 218 208
239 218 251 275 289 294 150 202 41 294 47 119 116 180 194 153 158 157 161 173 172 167 170 172 178 170 184 203 209 215 220 206 198 202 237 240 233 227 208 292 253 247 224 221 221 217 218 216 222
249 256 225 238 267 277 30 53 337 238 214 256 0 333 165 152 149 151 159 169 181 185 181 172 179 190 193 204 223 238 222 194 191 173 176 195 230 226 240 251 241 280 262 235 229 221 217 214 209
212 248 260 280 273 284 327 269 249 246 176 193 248 38 5 145 149 146 159 168 179 185 174 181 174 191 200 204 203 217 205 197 201 205 216 210 239 298 310 268 228 198 211 238 233 229 221 221 215
246 222 242 238 254 270 293 131 299 305 306 325 58 50 89 131 140 147 161 165 176 184 182 182 185 194 183 192 187 197 198 205 203 197 175 213 41 54 346 65 173 174 197 214 226 216 213 218 220